Flag for Azerbaijan Weather past 2 weeks in Ganja, Azerbaijan

Now
45 °F

Passing clouds.


Feels Like: 42 °F
Forecast: 45 / 61 °F
Wind: 5 mph from East

Location: Gyanca Airport

Current Time: Oct 20, 2014 at 11:48:22 PM

Latest Report: Oct 20, 2014 at 11:30 PM


Visibility: N/A

Pressure: 30.24 "Hg

Humidity: 87%

Dew point: 41 °F

Location of GanjaLocation

Historic Weather in Ganja — Graph

°F

Ganja temperature yesterday

Maximum temperature yesterday: 64 °F (at 12:00 PM)
Minimum temperature yesterday: 52 °F (at 11:30 PM)
Average temperature yesterday: 59 °F

Past Weeks' High & Low Weather Summary

 TemperatureHumidityPressure
High79 °F (Oct 16, 4:00 PM)100% (Oct 7, 8:30 AM)30.42 "Hg (Oct 7, 8:30 AM)
Low45 °F (Oct 20, 10:30 PM)32% (Oct 16, 6:30 PM)29.65 "Hg (Oct 19, 1:30 AM)
Average60 °F74%30.11 "Hg
* Reported Oct 5 10:00 PM — Oct 20 10:30 PM, Ganja, Weather by CustomWeather, © 2014

Note: Actual official high and low records may vary slightly from our data, if they occured in-between our weather recording intervals... More about our weather records

Advertising

Ganja weather history for previous 24 hours

 ConditionsComfort  
Time TempWeatherWind HumidityBarometerVisibility
10:30 PM
Oct 20
45 °FPassing clouds.7 mph81%30.21 "HgN/A
10:00 PM46 °FPassing clouds.7 mph82%30.24 "HgN/A
9:30 PM48 °FPassing clouds.8 mph76%30.21 "HgN/A
9:00 PM48 °FScattered clouds.9 mph76%30.21 "HgN/A
8:30 PM48 °FScattered clouds.10 mph76%30.24 "HgN/A
8:00 PM50 °FScattered clouds.10 mph71%30.21 "HgN/A
7:30 PM52 °FScattered clouds.12 mph62%30.21 "HgN/A
7:00 PM52 °FScattered clouds.13 mph62%30.21 "HgN/A
6:30 PM54 °FScattered clouds.15 mph58%30.21 "HgN/A
6:00 PM54 °FScattered clouds.16 mph58%30.21 "HgN/A
5:30 PM54 °FScattered clouds.15 mph58%30.21 "HgN/A
5:00 PM55 °FScattered clouds.14 mph51%30.21 "HgN/A
4:30 PM55 °FScattered clouds.14 mph51%30.21 "HgN/A
4:00 PM57 °FScattered clouds.15 mph48%30.21 "HgN/A
3:30 PM57 °FScattered clouds.8 mph41%30.21 "HgN/A
3:00 PM57 °FScattered clouds.6 mph41%30.21 "HgN/A
2:30 PM57 °FScattered clouds.5 mph39%30.21 "HgN/A
2:00 PM55 °FScattered clouds.5 mph44%30.24 "HgN/A
1:30 PM57 °FScattered clouds.5 mph48%30.27 "HgN/A
1:00 PM55 °FScattered clouds.5 mph55%30.27 "HgN/A
12:30 PM54 °FScattered clouds.7 mph54%30.27 "HgN/A
12:00 PM55 °FPartly sunny.3 mph44%30.27 "HgN/A
11:30 AM54 °FPartly sunny.5 mph44%30.27 "HgN/A
11:00 AM52 °FPartly sunny.5 mph47%30.24 "HgN/A
10:30 AM52 °FPartly sunny.5 mph47%30.24 "HgN/A
10:00 AM50 °FPassing clouds.7 mph50%30.24 "HgN/A
8:00 AM50 °FPassing clouds.12 mph47%30.15 "HgN/A
7:30 AM50 °FPassing clouds.14 mph47%30.12 "HgN/A
7:00 AM50 °FPassing clouds.15 mph47%30.12 "HgN/A
6:30 AM50 °FOvercast.12 mph47%30.12 "HgN/A
6:00 AM50 °FOvercast.9 mph47%30.09 "HgN/A
5:30 AM50 °FOvercast.12 mph47%30.09 "HgN/A
5:00 AM50 °FOvercast.9 mph47%30.07 "HgN/A
4:30 AM50 °FOvercast.7 mph50%30.07 "HgN/A
4:00 AM50 °FOvercast.12 mph47%30.07 "HgN/A
3:30 AM50 °FOvercast.10 mph47%30.04 "HgN/A
3:00 AM50 °FOvercast.8 mph47%30.04 "HgN/A
2:30 AM50 °FOvercast.15 mph47%30.04 "HgN/A
2:00 AM50 °FOvercast.16 mph50%30.01 "HgN/A
1:30 AM50 °FOvercast.12 mph50%29.98 "HgN/A
1:00 AM52 °FOvercast.17 mph47%29.98 "HgN/A
12:30 AM52 °FOvercast.14 mph47%29.98 "HgN/A
12:00 AM52 °FOvercast.18 mph47%29.95 "HgN/A
11:30 PM
Oct 19
52 °FOvercast.16 mph47%29.98 "HgN/A
11:00 PM54 °FOvercast.15 mph47%29.95 "HgN/A
Weather by CustomWeather, © 2014

See weather overviewHow to use our weather pages